Corvallis, OR

7:17 PM PDT on June 22, 2017 (GMT -0700)
Corvallis Municipal

Weather History for KCVO - August, 2014

Change the Weather History Date:

Monday, August 4, 2014

  Actual Average Record
Temperature  
Mean Temperature 72 °F -  
Max Temperature 86 °F 83 °F 104 °F (2012)
Min Temperature 59 °F 53 °F 44 °F (2002)
Cooling Degree Days 8    
Growing Degree Days 22 (Base 50)    
Moisture  
Dew Point 56 °F    
Average Humidity 64    
Maximum Humidity 88    
Minimum Humidity 40    
Precipitation  
Precipitation 0.00 in - - ()
Sea Level Pressure  
Sea Level Pressure 29.96 in    
Wind  
Wind Speed 12 mph (WNW)    
Max Wind Speed 22 mph    
Max Gust Speed 26 mph    
Visibility 10 miles    
Events      
Averages and records for this station are not official NWS values.
T = Trace of Precipitation, MM = Missing Value Source: NWS Daily Summary

Daily Weather History Graph

Daily Weather History Graph

Search for Another Location

Airport or City:

Trip Planner

Search our weather history database for the weather conditions in past years. The results will help you decide how hot, cold, wet, or windy it might be!

Date:

Astronomy

Aug. 04, 2014 Rise Set
Actual Time 6:03 AM PDT 8:34 PM PDT
Civil Twilight 5:30 AM PDT 9:07 PM PDT
Nautical Twilight 4:49 AM PDT 9:48 PM PDT
Astronomical Twilight 4:02 AM PDT 10:34 PM PDT
Moon 2:51 PM PDT (8/4) 12:15 AM PDT (8/4)
Length of Visible Light 15h 36m
Length of Day
14h 30m
First Quarter, 58% of the Moon is Illuminated
Aug 4
First Quarter
Aug 10
Full
Aug 17
Last Quarter
Aug 25
New
Sep 2
First Quarter

Hourly Weather History & Observations

Time (PDT) Temp. Heat Index Dew Point Humidity Pressure Visibility Wind Dir Wind Speed Gust Speed Precip Events Conditions
12:15 AM 66.2 °F - 57.2 °F 73% 29.94 in - WNW 13.8 mph - N/A   Unknown
12:35 AM 66.2 °F - 57.2 °F 73% 29.94 in - WNW 13.8 mph - N/A   Unknown
12:55 AM 64.4 °F - 57.2 °F 77% 29.94 in - WNW 13.8 mph - N/A   Unknown
1:15 AM 64.4 °F - 57.2 °F 77% 29.94 in - WNW 13.8 mph - N/A   Unknown
1:35 AM 64.4 °F - 55.4 °F 73% 29.94 in - WNW 12.7 mph - N/A   Unknown
1:55 AM 64.4 °F - 55.4 °F 73% 29.94 in - WNW 11.5 mph - N/A   Unknown
2:15 AM 62.6 °F - 55.4 °F 77% 29.95 in - WNW 11.5 mph - N/A   Unknown
2:35 AM 62.6 °F - 55.4 °F 77% 29.95 in - WNW 10.4 mph - N/A   Unknown
2:55 AM 62.6 °F - 55.4 °F 77% 29.95 in - WNW 11.5 mph - N/A   Unknown
3:15 AM 62.6 °F - 55.4 °F 77% 29.95 in - WNW 9.2 mph - N/A   Unknown
3:35 AM 62.6 °F - 55.4 °F 77% 29.95 in - WNW 9.2 mph - N/A   Unknown
3:55 AM 62.6 °F - 55.4 °F 77% 29.95 in - WNW 12.7 mph - N/A   Unknown
4:15 AM 60.8 °F - 55.4 °F 82% 29.95 in - WNW 11.5 mph - N/A   Unknown
4:35 AM 60.8 °F - 55.4 °F 82% 29.96 in - WNW 9.2 mph - N/A   Unknown
5:15 AM 60.8 °F - 55.4 °F 82% 29.96 in - WNW 11.5 mph - N/A   Unknown
5:35 AM 60.8 °F - 55.4 °F 82% 29.97 in - WNW 10.4 mph - N/A   Unknown
5:55 AM 60.8 °F - 55.4 °F 82% 29.97 in - NW 10.4 mph - N/A   Unknown
6:15 AM 59.0 °F - 55.4 °F 88% 29.97 in - WNW 10.4 mph - N/A   Unknown
6:35 AM 59.0 °F - 55.4 °F 88% 29.98 in - NW 10.4 mph - N/A   Unknown
7:15 AM 59.0 °F - 55.4 °F 88% 29.98 in - WNW 9.2 mph - N/A   Unknown
7:35 AM 60.8 °F - 55.4 °F 82% 29.98 in - NW 6.9 mph - N/A   Unknown
7:55 AM 60.8 °F - 55.4 °F 82% 29.98 in - NW 6.9 mph - N/A   Unknown
8:15 AM 62.6 °F - 55.4 °F 77% 29.99 in - NW 9.2 mph - N/A   Unknown
8:35 AM 64.4 °F - 55.4 °F 73% 29.99 in - WNW 9.2 mph - N/A   Unknown
8:55 AM 64.4 °F - 55.4 °F 73% 29.99 in - NW 9.2 mph - N/A   Unknown
9:15 AM 66.2 °F - 55.4 °F 68% 29.99 in - NW 9.2 mph - N/A   Unknown
9:35 AM 68.0 °F - 57.2 °F 68% 29.98 in - NW 6.9 mph - N/A   Unknown
9:55 AM 69.8 °F - 57.2 °F 64% 29.98 in - WNW 6.9 mph - N/A   Unknown
10:15 AM 71.6 °F - 57.2 °F 60% 29.98 in - West 4.6 mph - N/A   Unknown
10:35 AM 73.4 °F - 57.2 °F 57% 29.98 in 10.0 mi West 3.5 mph - N/A   Unknown
10:55 AM 73.4 °F - 57.2 °F 57% 29.98 in 10.0 mi West 3.5 mph - N/A   Unknown
11:15 AM 75.2 °F - 57.2 °F 53% 29.98 in 10.0 mi West 3.5 mph - N/A   Unknown
11:35 AM 78.8 °F - 57.2 °F 47% 29.98 in 10.0 mi Calm Calm - N/A   Unknown
11:55 AM 80.6 °F 80.8 °F 57.2 °F 45% 29.97 in 10.0 mi Calm Calm - N/A   Unknown
12:15 PM 80.6 °F 80.8 °F 57.2 °F 45% 29.97 in 10.0 mi North 3.5 mph - N/A   Unknown
12:35 PM 82.4 °F 82.0 °F 57.2 °F 42% 29.96 in 10.0 mi NW 3.5 mph - N/A   Unknown
12:55 PM 82.4 °F 82.5 °F 59.0 °F 45% 29.96 in 10.0 mi NW 3.5 mph - N/A   Unknown
1:15 PM 82.4 °F 82.5 °F 59.0 °F 45% 29.95 in 10.0 mi WNW 3.5 mph - N/A   Unknown
1:35 PM 84.2 °F 83.8 °F 59.0 °F 42% 29.95 in 10.0 mi NW 6.9 mph - N/A   Unknown
1:55 PM 84.2 °F 83.8 °F 59.0 °F 42% 29.95 in 10.0 mi NNW 9.2 mph - N/A   Unknown
2:15 PM 84.2 °F 83.5 °F 57.2 °F 40% 29.94 in 10.0 mi NW 10.4 mph - N/A   Unknown
2:35 PM 86.0 °F 85.4 °F 59.0 °F 40% 29.94 in 10.0 mi NW 11.5 mph - N/A   Unknown
2:55 PM 84.2 °F 84.4 °F 60.8 °F 45% 29.94 in 10.0 mi WNW 13.8 mph - N/A   Unknown
3:15 PM 84.2 °F 84.4 °F 60.8 °F 45% 29.93 in 10.0 mi NW 10.4 mph - N/A   Unknown
3:35 PM 84.2 °F 84.4 °F 60.8 °F 45% 29.93 in 10.0 mi NW 13.8 mph - N/A   Unknown
3:55 PM 84.2 °F 84.4 °F 60.8 °F 45% 29.93 in 10.0 mi WNW 13.8 mph - N/A   Unknown
4:15 PM 84.2 °F 84.4 °F 60.8 °F 45% 29.92 in 10.0 mi NW 13.8 mph - N/A   Unknown
4:35 PM 84.2 °F 85.0 °F 62.6 °F 48% 29.92 in 10.0 mi NW 15.0 mph - N/A   Unknown
4:55 PM 82.4 °F 83.4 °F 62.6 °F 51% 29.91 in 10.0 mi NW 12.7 mph - N/A   Unknown
5:15 PM 80.6 °F 81.5 °F 60.8 °F 51% 29.92 in 10.0 mi NW 19.6 mph - N/A   Unknown
5:35 PM 80.6 °F 81.1 °F 59.0 °F 48% 29.91 in 10.0 mi NW 18.4 mph 23.0 mph N/A   Unknown
5:55 PM 78.8 °F - 57.2 °F 47% 29.91 in 4.0 mi NW 21.9 mph 26.5 mph N/A   Unknown
6:15 PM 77.0 °F - 57.2 °F 50% 29.92 in 10.0 mi WNW 17.3 mph 23.0 mph N/A   Unknown
6:35 PM 75.2 °F - 55.4 °F 50% 29.92 in 9.0 mi WNW 19.6 mph 25.3 mph N/A   Unknown
6:55 PM 73.4 °F - 55.4 °F 53% 29.93 in 8.0 mi WNW 17.3 mph 23.0 mph N/A   Unknown
7:15 PM 71.6 °F - 53.6 °F 53% 29.93 in 10.0 mi WNW 17.3 mph 23.0 mph N/A   Unknown
7:35 PM 69.8 °F - 53.6 °F 56% 29.93 in 3.0 mi WNW 17.3 mph - N/A   Unknown
7:55 PM 69.8 °F - 53.6 °F 56% 29.94 in 10.0 mi WNW 18.4 mph 24.2 mph N/A   Unknown
8:35 PM 66.2 °F - 51.8 °F 60% 29.96 in 10.0 mi WNW 15.0 mph 21.9 mph N/A   Unknown
8:55 PM 64.4 °F - 51.8 °F 64% 29.96 in - WNW 18.4 mph - N/A   Unknown
9:15 PM 64.4 °F - 51.8 °F 64% 29.98 in - WNW 15.0 mph - N/A   Unknown
9:35 PM 62.6 °F - 51.8 °F 68% 29.98 in - WNW 16.1 mph 19.6 mph N/A   Unknown
9:55 PM 62.6 °F - 51.8 °F 68% 29.98 in - WNW 17.3 mph - N/A   Unknown
10:15 PM 62.6 °F - 51.8 °F 68% 29.98 in - WNW 17.3 mph - N/A   Unknown
10:35 PM 60.8 °F - 51.8 °F 72% 29.99 in - WNW 16.1 mph - N/A   Unknown
10:55 PM 60.8 °F - 51.8 °F 72% 30.01 in - WNW 15.0 mph 20.7 mph N/A   Unknown
11:15 PM 59.0 °F - 51.8 °F 77% 30.01 in - WNW 18.4 mph 23.0 mph N/A   Unknown
11:35 PM 59.0 °F - 51.8 °F 77% 30.02 in - WNW 15.0 mph - N/A   Unknown
11:55 PM 59.0 °F - 51.8 °F 77% 30.02 in - WNW 13.8 mph - N/A   Unknown